Location: ???????
(55.3754°N, 39.3545°E)
Time: 18:13:16
(UTC+00:00)

Cosmos 1934 Rocket - Pass Details

Date: 14 April 2026
Orbit: 936 x 999 km, 83.0° (Epoch: 16 May)

Event Time Altitude Azimuth Distance (km) Brightness Sun altitude
Exits shadow 19:42:07 26° 202° (SSW) 1,828 5.1 -21.7°
Maximum altitude 19:45:51 75° 283° (WNW) 1,020 4.1 -21.9°
Drops below altitude 10° 19:52:07 10° 9° (N) 2,722 7.1 -22.3°
Sets 19:54:37 0° 12° (NNE) 3,663 7.9 -22.4°
